HISTORICAL SENSOR DATA

Sensor Data Report

DB LIVE
CURRENT TIME--:--:--
DEVICE NETWORK Gateway Status
13 ESP · realtime ~1s · history 60s
Weather WS-MOD-01
ONLINE
Actuator ACT-MOD-01
OFFLINE
Mainboard L3 MB-L3-01
ONLINE
Mainboard L5 MB-L5-01
ONLINE
Remote AC AC-REMOTE-01
ONLINE
PZEM L3-01 PWR-L3-01
OFFLINE
PZEM L3-02 PWR-L3-02
OFFLINE
PZEM L3-03 PWR-L3-03
OFFLINE
PZEM L3-04 PWR-L3-04
OFFLINE
PZEM L5-01 PWR-L5-01
ONLINE
PZEM L5-02 PWR-L5-02
ONLINE
PZEM L5-03 PWR-L5-03
OFFLINE
PZEM L5-04 PWR-L5-04
OFFLINE
REPORT FILTER

Periode & Sensor

DATABASE HISTORY
RESET
QUICK RANGE Hari ini 7 hari 30 hari
PERIODE31 Aug 2026sampai 06 Sep 2026
TOTAL DATA57,433sensor readings
MINIMUM-0.50sesuai filter
AVERAGE93.78sesuai filter
MAXIMUM32,564.20sesuai filter
REPORT RESULT

Data Sensor

31/08/2026 — 06/09/2026 EXPORT CSV
NOTANGGALWAKTUDEVICECHANNELSENSORVALUEUNIT
12501 06/09/2026 16:42:00 MB-L3-01Mainboard Lantai 3 L3-LUX-02 Illuminance / LUX 2 308.90 lux
12502 06/09/2026 16:42:00 MB-L3-01Mainboard Lantai 3 L3-SHT-03-RH SHT20 3 Humidity 40.60 %RH
12503 06/09/2026 16:42:00 MB-L5-01Mainboard Lantai 5 L5-LUX-05 Illuminance / LUX 5 1,335.70 lux
12504 06/09/2026 16:42:00 WS-MOD-01Weather Station Module WS-TEMP Suhu Udara 26.10 °C
12505 06/09/2026 16:42:00 MB-L5-01Mainboard Lantai 5 L5-SHT-01-RH SHT20 1 Humidity 38.70 %RH
12506 06/09/2026 16:42:00 MB-L3-01Mainboard Lantai 3 L3-SHT-01-RH SHT20 1 Humidity 40.10 %RH
12507 06/09/2026 16:42:00 MB-L5-01Mainboard Lantai 5 L5-LUX-01 Illuminance / LUX 1 170.80 lux
12508 06/09/2026 16:42:00 MB-L5-01Mainboard Lantai 5 L5-SHT-01-T SHT20 1 Temperature 32.40 °C
12509 06/09/2026 16:42:00 MB-L5-01Mainboard Lantai 5 L5-AI-06 Analog Input 6 3.05 V
12510 06/09/2026 16:42:00 MB-L3-01Mainboard Lantai 3 L3-RAD-01 Radiation 1 1.00 W/m²
12511 06/09/2026 16:42:00 WS-MOD-01Weather Station Module WS-WIND Kecepatan Angin 5.33 m/s
12512 06/09/2026 16:42:00 MB-L5-01Mainboard Lantai 5 L5-SHT-02-T SHT20 2 Temperature 31.60 °C
12513 06/09/2026 16:42:00 MB-L5-01Mainboard Lantai 5 L5-AI-04 Analog Input 4 3.05 V
12514 06/09/2026 16:42:00 MB-L5-01Mainboard Lantai 5 L5-HFT-01 Heat Flow Temperature 1 33.60 °C
12515 06/09/2026 16:42:00 MB-L3-01Mainboard Lantai 3 L3-SHT-01-T SHT20 1 Temperature 31.00 °C
12516 06/09/2026 16:41:00 MB-L3-01Mainboard Lantai 3 L3-LUX-04 Illuminance / LUX 4 151.60 lux
12517 06/09/2026 16:41:00 MB-L5-01Mainboard Lantai 5 L5-SHT-03-RH SHT20 3 Humidity 38.50 %RH
12518 06/09/2026 16:41:00 MB-L3-01Mainboard Lantai 3 L3-LUX-01 Illuminance / LUX 1 229.50 lux
12519 06/09/2026 16:41:00 WS-MOD-01Weather Station Module WS-PRES Tekanan Udara 908.00 hPa
12520 06/09/2026 16:41:00 MB-L3-01Mainboard Lantai 3 L3-LUX-06 Illuminance / LUX 6 913.70 lux
12521 06/09/2026 16:41:00 MB-L5-01Mainboard Lantai 5 L5-LUX-03 Illuminance / LUX 3 352.00 lux
12522 06/09/2026 16:41:00 MB-L5-01Mainboard Lantai 5 L5-AI-05 Analog Input 5 3.05 V
12523 06/09/2026 16:41:00 MB-L5-01Mainboard Lantai 5 L5-HFT-02 Heat Flow Temperature 2 30.00 °C
12524 06/09/2026 16:41:00 MB-L5-01Mainboard Lantai 5 L5-LUX-04 Illuminance / LUX 4 254.00 lux
12525 06/09/2026 16:41:00 MB-L3-01Mainboard Lantai 3 L3-RAD-02 Radiation 2 2.00 W/m²
12526 06/09/2026 16:41:00 MB-L5-01Mainboard Lantai 5 L5-AI-03 Analog Input 3 3.05 V
12527 06/09/2026 16:41:00 MB-L5-01Mainboard Lantai 5 L5-ST-02 Surface Temperature 2 30.00 °C
12528 06/09/2026 16:41:00 MB-L3-01Mainboard Lantai 3 L3-SHT-02-RH SHT20 2 Humidity 39.90 %RH
12529 06/09/2026 16:41:00 WS-MOD-01Weather Station Module WS-RH Kelembapan Udara 55.20 %RH
12530 06/09/2026 16:41:00 MB-L5-01Mainboard Lantai 5 L5-AI-01 Analog Input 1 3.05 V
12531 06/09/2026 16:41:00 MB-L3-01Mainboard Lantai 3 L3-LUX-05 Illuminance / LUX 5 704.40 lux
12532 06/09/2026 16:41:00 MB-L5-01Mainboard Lantai 5 L5-LUX-02 Illuminance / LUX 2 803.90 lux
12533 06/09/2026 16:41:00 MB-L3-01Mainboard Lantai 3 L3-LUX-03 Illuminance / LUX 3 278.30 lux
12534 06/09/2026 16:41:00 MB-L5-01Mainboard Lantai 5 L5-BGT-03 Black Globe Temperature 3 29.80 °C
12535 06/09/2026 16:41:00 MB-L5-01Mainboard Lantai 5 L5-RAD-01 Radiation 1 2.00 W/m²
12536 06/09/2026 16:41:00 MB-L3-01Mainboard Lantai 3 L3-AI-01 Analog Input 1 3.12 V
12537 06/09/2026 16:41:00 MB-L3-01Mainboard Lantai 3 L3-AI-03 Analog Input 3 3.12 V
12538 06/09/2026 16:41:00 MB-L3-01Mainboard Lantai 3 L3-AI-05 Analog Input 5 3.12 V
12539 06/09/2026 16:41:00 MB-L5-01Mainboard Lantai 5 L5-RAD-02 Radiation 2 2.00 W/m²
12540 06/09/2026 16:41:00 MB-L5-01Mainboard Lantai 5 L5-BGT-01 Black Globe Temperature 1 29.70 °C
12541 06/09/2026 16:41:00 MB-L3-01Mainboard Lantai 3 L3-LUX-02 Illuminance / LUX 2 334.10 lux
12542 06/09/2026 16:41:00 MB-L3-01Mainboard Lantai 3 L3-SHT-03-RH SHT20 3 Humidity 40.60 %RH
12543 06/09/2026 16:41:00 MB-L5-01Mainboard Lantai 5 L5-LUX-05 Illuminance / LUX 5 1,441.00 lux
12544 06/09/2026 16:41:00 WS-MOD-01Weather Station Module WS-TEMP Suhu Udara 26.20 °C
12545 06/09/2026 16:41:00 MB-L5-01Mainboard Lantai 5 L5-SHT-01-RH SHT20 1 Humidity 38.70 %RH
12546 06/09/2026 16:41:00 MB-L3-01Mainboard Lantai 3 L3-SHT-01-RH SHT20 1 Humidity 40.00 %RH
12547 06/09/2026 16:41:00 MB-L5-01Mainboard Lantai 5 L5-LUX-01 Illuminance / LUX 1 198.30 lux
12548 06/09/2026 16:41:00 MB-L5-01Mainboard Lantai 5 L5-SHT-01-T SHT20 1 Temperature 32.30 °C
12549 06/09/2026 16:41:00 MB-L5-01Mainboard Lantai 5 L5-AI-06 Analog Input 6 3.05 V
12550 06/09/2026 16:41:00 MB-L3-01Mainboard Lantai 3 L3-RAD-01 Radiation 1 1.00 W/m²
12551 06/09/2026 16:41:00 WS-MOD-01Weather Station Module WS-WIND Kecepatan Angin 10.35 m/s
12552 06/09/2026 16:41:00 MB-L5-01Mainboard Lantai 5 L5-SHT-02-T SHT20 2 Temperature 31.60 °C
12553 06/09/2026 16:41:00 MB-L5-01Mainboard Lantai 5 L5-AI-04 Analog Input 4 3.05 V
12554 06/09/2026 16:41:00 MB-L5-01Mainboard Lantai 5 L5-HFT-01 Heat Flow Temperature 1 33.80 °C
12555 06/09/2026 16:41:00 MB-L3-01Mainboard Lantai 3 L3-SHT-01-T SHT20 1 Temperature 30.90 °C
12556 06/09/2026 16:41:00 MB-L5-01Mainboard Lantai 5 L5-AI-02 Analog Input 2 3.05 V
12557 06/09/2026 16:41:00 WS-MOD-01Weather Station Module WS-DIR Arah Angin 153.70 °
12558 06/09/2026 16:41:00 MB-L5-01Mainboard Lantai 5 L5-ST-01 Surface Temperature 1 32.70 °C
12559 06/09/2026 16:41:00 MB-L3-01Mainboard Lantai 3 L3-SHT-03-T SHT20 3 Temperature 30.70 °C
12560 06/09/2026 16:41:00 MB-L5-01Mainboard Lantai 5 L5-SHT-02-RH SHT20 2 Humidity 39.50 %RH
12561 06/09/2026 16:41:00 MB-L3-01Mainboard Lantai 3 L3-AI-06 Analog Input 6 3.12 V
12562 06/09/2026 16:41:00 MB-L5-01Mainboard Lantai 5 L5-BGT-02 Black Globe Temperature 2 29.50 °C
12563 06/09/2026 16:41:00 MB-L3-01Mainboard Lantai 3 L3-SHT-02-T SHT20 2 Temperature 30.90 °C
12564 06/09/2026 16:41:00 MB-L3-01Mainboard Lantai 3 L3-AI-02 Analog Input 2 3.12 V
12565 06/09/2026 16:41:00 MB-L3-01Mainboard Lantai 3 L3-AI-04 Analog Input 4 3.12 V
12566 06/09/2026 16:41:00 MB-L5-01Mainboard Lantai 5 L5-LUX-06 Illuminance / LUX 6 412.60 lux
12567 06/09/2026 16:41:00 MB-L5-01Mainboard Lantai 5 L5-SHT-03-T SHT20 3 Temperature 32.20 °C
12568 06/09/2026 16:40:00 MB-L5-01Mainboard Lantai 5 L5-HFT-02 Heat Flow Temperature 2 30.00 °C
12569 06/09/2026 16:40:00 MB-L5-01Mainboard Lantai 5 L5-LUX-04 Illuminance / LUX 4 274.80 lux
12570 06/09/2026 16:40:00 MB-L3-01Mainboard Lantai 3 L3-RAD-02 Radiation 2 2.00 W/m²
12571 06/09/2026 16:40:00 MB-L5-01Mainboard Lantai 5 L5-AI-03 Analog Input 3 3.05 V
12572 06/09/2026 16:40:00 MB-L5-01Mainboard Lantai 5 L5-ST-02 Surface Temperature 2 30.10 °C
12573 06/09/2026 16:40:00 MB-L3-01Mainboard Lantai 3 L3-SHT-02-RH SHT20 2 Humidity 39.80 %RH
12574 06/09/2026 16:40:00 WS-MOD-01Weather Station Module WS-RH Kelembapan Udara 54.70 %RH
12575 06/09/2026 16:40:00 MB-L5-01Mainboard Lantai 5 L5-AI-01 Analog Input 1 3.05 V
12576 06/09/2026 16:40:00 MB-L3-01Mainboard Lantai 3 L3-LUX-05 Illuminance / LUX 5 763.10 lux
12577 06/09/2026 16:40:00 MB-L5-01Mainboard Lantai 5 L5-LUX-02 Illuminance / LUX 2 871.40 lux
12578 06/09/2026 16:40:00 MB-L3-01Mainboard Lantai 3 L3-LUX-03 Illuminance / LUX 3 297.00 lux
12579 06/09/2026 16:40:00 MB-L5-01Mainboard Lantai 5 L5-BGT-03 Black Globe Temperature 3 29.90 °C
12580 06/09/2026 16:40:00 MB-L5-01Mainboard Lantai 5 L5-RAD-01 Radiation 1 2.00 W/m²
12581 06/09/2026 16:40:00 MB-L3-01Mainboard Lantai 3 L3-AI-01 Analog Input 1 3.12 V
12582 06/09/2026 16:40:00 MB-L3-01Mainboard Lantai 3 L3-AI-03 Analog Input 3 3.12 V
12583 06/09/2026 16:40:00 MB-L3-01Mainboard Lantai 3 L3-AI-05 Analog Input 5 3.12 V
12584 06/09/2026 16:40:00 MB-L5-01Mainboard Lantai 5 L5-RAD-02 Radiation 2 2.00 W/m²
12585 06/09/2026 16:40:00 MB-L5-01Mainboard Lantai 5 L5-BGT-01 Black Globe Temperature 1 29.60 °C
12586 06/09/2026 16:40:00 MB-L3-01Mainboard Lantai 3 L3-LUX-02 Illuminance / LUX 2 370.50 lux
12587 06/09/2026 16:40:00 MB-L3-01Mainboard Lantai 3 L3-SHT-03-RH SHT20 3 Humidity 40.70 %RH
12588 06/09/2026 16:40:00 MB-L5-01Mainboard Lantai 5 L5-LUX-05 Illuminance / LUX 5 1,547.60 lux
12589 06/09/2026 16:40:00 WS-MOD-01Weather Station Module WS-TEMP Suhu Udara 26.50 °C
12590 06/09/2026 16:40:00 MB-L5-01Mainboard Lantai 5 L5-SHT-01-RH SHT20 1 Humidity 38.20 %RH
12591 06/09/2026 16:40:00 MB-L3-01Mainboard Lantai 3 L3-SHT-01-RH SHT20 1 Humidity 40.00 %RH
12592 06/09/2026 16:40:00 MB-L5-01Mainboard Lantai 5 L5-LUX-01 Illuminance / LUX 1 212.20 lux
12593 06/09/2026 16:40:00 MB-L5-01Mainboard Lantai 5 L5-SHT-01-T SHT20 1 Temperature 32.30 °C
12594 06/09/2026 16:40:00 MB-L5-01Mainboard Lantai 5 L5-AI-06 Analog Input 6 3.05 V
12595 06/09/2026 16:40:00 MB-L3-01Mainboard Lantai 3 L3-RAD-01 Radiation 1 2.00 W/m²
12596 06/09/2026 16:40:00 WS-MOD-01Weather Station Module WS-WIND Kecepatan Angin 6.84 m/s
12597 06/09/2026 16:40:00 MB-L5-01Mainboard Lantai 5 L5-SHT-02-T SHT20 2 Temperature 31.40 °C
12598 06/09/2026 16:40:00 MB-L5-01Mainboard Lantai 5 L5-AI-04 Analog Input 4 3.05 V
12599 06/09/2026 16:40:00 MB-L5-01Mainboard Lantai 5 L5-HFT-01 Heat Flow Temperature 1 33.90 °C
12600 06/09/2026 16:40:00 MB-L3-01Mainboard Lantai 3 L3-SHT-01-T SHT20 1 Temperature 31.00 °C
Menampilkan maksimal 100 data per halaman